NK0V Weather Reports


Display with metric or nautical units.
time (UTC)temp
F
wind
direction
speed
MPH
gust
MPH
rain 1hr
in
rain 24hr
in
rain mn
in
humidity
%
barometer
mb
20260904032102 76 0 0.0 3.0 0.00 0.00 0.00 77 1010.1
20260904031608 77 131 0.0 3.0 0.00 0.00 0.00 76 1009.9
20260904031059 77 102 0.0 2.0 0.00 0.00 0.00 75 1009.8
20260904030559 77 122 0.0 2.0 0.00 0.00 0.00 75 1009.8
20260904030103 78 142 0.0 2.0 0.00 0.00 0.00 74 1009.7
20260904025600 78 0 0.0 1.0 0.00 0.00 0.00 74 1009.6
20260904025059 78 0 0.0 2.0 0.00 0.00 0.00 74 1009.7
20260904024607 78 0 0.0 2.0 0.00 0.00 0.00 74 1009.6
20260904024100 79 130 0.0 2.0 0.00 0.00 0.00 73 1009.6
20260904023601 79 155 0.0 3.0 0.00 0.00 0.00 73 1009.5
20260904023105 79 0 0.0 3.0 0.00 0.00 0.00 72 1009.5
20260904022559 79 109 0.0 5.0 0.00 0.00 0.00 72 1009.5
20260904022100 80 139 1.0 5.0 0.00 0.00 0.00 72 1009.5
20260904021605 80 134 1.0 5.0 0.00 0.00 0.00 71 1009.4
20260904021059 80 111 0.0 5.0 0.00 0.00 0.00 71 1009.4
20260904020559 80 194 2.0 7.0 0.00 0.00 0.00 71 1009.3
20260904020105 81 229 1.0 7.0 0.00 0.00 0.00 71 1009.2
20260904015559 81 153 1.0 5.0 0.00 0.00 0.00 71 1009.2
20260904015100 81 138 1.0 4.0 0.00 0.00 0.00 70 1009.1
20260904014619 82 137 1.0 4.0 0.00 0.00 0.00 70 1009.0
20260904014103 82 98 1.0 4.0 0.00 0.00 0.00 69 1009.0
20260904013601 82 144 0.0 4.0 0.00 0.00 0.00 69 1009.0
20260904013120 83 0 1.0 4.0 0.00 0.00 0.00 68 1008.9
20260904012557 83 115 1.0 4.0 0.00 0.00 0.00 68 1008.8
20260904012055 83 138 0.0 5.0 0.00 0.00 0.00 68 1008.8
20260904011604 84 136 1.0 6.0 0.00 0.00 0.00 67 1008.8
20260904011057 84 169 1.0 6.0 0.00 0.00 0.00 66 1008.7
20260904010554 85 106 1.0 4.0 0.00 0.00 0.00 66 1008.8
20260904010114 85 156 1.0 5.0 0.00 0.00 0.00 66 1008.7
20260904005556 85 157 1.0 5.0 0.00 0.00 0.00 66 1008.7
20260904005100 86 166 1.0 5.0 0.00 0.00 0.00 66 1008.6
20260904004620 86 178 0.0 4.0 0.00 0.00 0.00 65 1008.6
20260904004058 86 190 0.0 4.0 0.00 0.00 0.00 65 1008.5
20260904003557 86 143 1.0 4.0 0.00 0.00 0.00 65 1008.6
20260904003129 87 163 0.0 5.0 0.00 0.00 0.00 65 1008.6
20260904002555 87 0 0.0 5.0 0.00 0.00 0.00 65 1008.5
20260904002056 87 157 1.0 6.0 0.00 0.00 0.00 65 1008.6
20260904001605 87 100 1.0 6.0 0.00 0.00 0.00 64 1008.5
20260904001055 87 138 1.0 6.0 0.00 0.00 0.00 64 1008.5
20260904000554 87 134 2.0 7.0 0.00 0.00 0.00 64 1008.4
20260903235553 87 128 2.0 10.0 0.00 0.00 0.00 63 1008.5
20260903235056 87 207 2.0 10.0 0.00 0.00 0.00 62 1008.4
20260903234603 87 216 2.0 6.0 0.00 0.00 0.00 61 1008.5
20260903234058 87 238 2.0 6.0 0.00 0.00 0.00 61 1008.4
20260903233556 87 149 2.0 7.0 0.00 0.00 0.00 60 1008.5
20260903233103 87 228 2.0 7.0 0.00 0.00 0.00 59 1008.3
20260903232557 87 200 2.0 7.0 0.00 0.00 0.00 58 1008.3
20260903232054 88 194 2.0 8.0 0.00 0.00 0.00 58 1008.4
20260903231606 88 195 4.0 11.0 0.00 0.00 0.00 57 1008.4
20260903231057 88 205 4.0 12.0 0.00 0.00 0.00 56 1008.3
20260903230555 88 175 3.0 12.0 0.00 0.00 0.00 56 1008.2
20260903230111 88 197 5.0 13.0 0.00 0.00 0.00 55 1008.2
20260903225555 88 202 3.0 13.0 0.00 0.00 0.00 55 1008.2
20260903225054 88 211 5.0 13.0 0.00 0.00 0.00 54 1008.2
20260903224608 88 206 3.0 19.0 0.00 0.00 0.00 56 1008.2
20260903224054 88 103 3.0 19.0 0.00 0.00 0.00 55 1008.2
20260903223600 88 189 5.0 18.0 0.00 0.00 0.00 55 1008.1
20260903223126 88 236 4.0 17.0 0.00 0.00 0.00 55 1008.2
20260903222556 89 220 5.0 17.0 0.00 0.00 0.00 55 1008.0
20260903222054 89 228 6.0 17.0 0.00 0.00 0.00 55 1007.9
20260903221607 89 238 6.0 17.0 0.00 0.00 0.00 55 1007.8
20260903221058 89 238 3.0 20.0 0.00 0.00 0.00 56 1007.8
20260903220557 89 239 6.0 20.0 0.00 0.00 0.00 55 1007.6
20260903220105 89 246 6.0 20.0 0.00 0.00 0.00 55 1007.7
20260903215556 88 202 6.0 16.0 0.00 0.00 0.00 50 1007.7
20260903215056 88 224 5.0 16.0 0.00 0.00 0.00 52 1007.7
20260903214557 88 208 7.0 15.0 0.00 0.00 0.00 51 1007.6
20260903214057 88 247 5.0 15.0 0.00 0.00 0.00 52 1007.6
20260903213559 88 188 4.0 15.0 0.00 0.00 0.00 52 1007.6
20260903213103 89 146 4.0 12.0 0.00 0.00 0.00 54 1007.6
20260903212558 89 197 5.0 12.0 0.00 0.00 0.00 56 1007.6
20260903212059 89 207 4.0 14.0 0.00 0.00 0.00 57 1007.7
20260903211611 89 137 4.0 14.0 0.00 0.00 0.00 56 1007.6
20260903211058 89 214 5.0 12.0 0.00 0.00 0.00 56 1007.6
20260903210555 89 238 4.0 12.0 0.00 0.00 0.00 55 1007.6
20260903205557 89 175 5.0 11.0 0.00 0.00 0.00 55 1007.5
20260903205057 89 180 5.0 10.0 0.00 0.00 0.00 55 1007.4
20260903204602 89 277 2.0 10.0 0.00 0.00 0.00 56 1007.4
20260903204057 89 191 2.0 10.0 0.00 0.00 0.00 56 1007.3
20260903203556 89 148 4.0 10.0 0.00 0.00 0.00 56 1007.1
20260903203101 89 111 2.0 10.0 0.00 0.00 0.00 55 1007.2
20260903202557 89 111 5.0 12.0 0.00 0.00 0.00 55 1007.3
20260903202058 89 184 4.0 12.0 0.00 0.00 0.00 55 1007.3
20260903201604 89 206 2.0 10.0 0.00 0.00 0.00 56 1007.4
20260903201057 90 141 4.0 10.0 0.00 0.00 0.00 55 1007.5
20260903200555 90 250 3.0 10.0 0.00 0.00 0.00 55 1007.6
20260903200059 90 132 4.0 11.0 0.00 0.00 0.00 57 1007.8
20260903195555 89 225 3.0 11.0 0.00 0.00 0.00 55 1007.9
20260903195056 89 240 5.0 11.0 0.00 0.00 0.00 55 1007.9
20260903194557 89 180 2.0 10.0 0.00 0.00 0.00 55 1007.9
20260903194056 89 143 4.0 10.0 0.00 0.00 0.00 55 1007.8
20260903193557 89 146 3.0 10.0 0.00 0.00 0.00 58 1007.8
20260903193107 89 207 3.0 9.0 0.00 0.00 0.00 57 1008.0
20260903192557 89 143 3.0 10.0 0.00 0.00 0.00 59 1008.1
20260903192056 89 202 4.0 11.0 0.00 0.00 0.00 58 1008.1
20260903191559 88 137 5.0 13.0 0.00 0.00 0.00 56 1008.0
20260903191059 89 169 6.0 17.0 0.00 0.00 0.00 56 1008.2
20260903190558 89 202 6.0 18.0 0.00 0.00 0.00 57 1008.3
20260903190106 89 186 6.0 18.0 0.00 0.00 0.00 56 1008.2
20260903185558 89 203 5.0 14.0 0.00 0.00 0.00 56 1008.3
20260903185056 89 111 4.0 12.0 0.00 0.00 0.00 55 1008.2
20260903184603 89 126 4.0 16.0 0.00 0.00 0.00 56 1008.1
20260903184057 89 184 5.0 16.0 0.00 0.00 0.00 57 1008.0
20260903183558 89 215 4.0 12.0 0.00 0.00 0.00 56 1008.2
20260903183108 89 175 2.0 12.0 0.00 0.00 0.00 59 1008.1
20260903182558 88 205 3.0 12.0 0.00 0.00 0.00 58 1008.0
20260903182057 88 189 2.0 8.0 0.00 0.00 0.00 59 1008.0
20260903181601 87 181 3.0 8.0 0.00 0.00 0.00 59 1008.0
20260903181058 87 130 1.0 6.0 0.00 0.00 0.00 58 1007.9
20260903180556 87 144 1.0 6.0 0.00 0.00 0.00 57 1008.1
20260903180101 88 104 1.0 6.0 0.00 0.00 0.00 56 1008.1
20260903175558 88 0 1.0 7.0 0.00 0.00 0.00 55 1007.9
20260903175057 88 127 1.0 8.0 0.00 0.00 0.00 58 1007.8
20260903174611 88 108 2.0 8.0 0.00 0.00 0.00 57 1007.9
20260903174055 87 117 2.0 6.0 0.00 0.00 0.00 60 1007.9
20260903173556 86 113 2.0 8.0 0.00 0.00 0.00 60 1008.0
20260903173107 85 124 3.0 10.0 0.00 0.00 0.00 62 1008.0
20260903172557 85 85 2.0 11.0 0.00 0.00 0.00 61 1007.8
20260903172057 84 165 4.0 11.0 0.00 0.00 0.00 63 1008.4
20260903171604 84 137 3.0 8.0 0.00 0.00 0.00 63 1008.6
20260903171056 83 192 1.0 6.0 0.00 0.00 0.00 66 1008.7
20260903170600 82 105 2.0 6.0 0.00 0.00 0.00 66 1008.6
20260903170106 82 0 1.0 8.0 0.00 0.00 0.00 65 1008.9
20260903165557 82 209 3.0 8.0 0.00 0.00 0.00 64 1008.8
20260903165057 83 162 3.0 8.0 0.00 0.00 0.00 64 1008.8
20260903164607 83 200 2.0 9.0 0.00 0.00 0.00 63 1009.0
20260903164057 83 81 3.0 9.0 0.00 0.00 0.00 63 1008.9
20260903163557 83 175 2.0 7.0 0.00 0.00 0.00 63 1009.0
20260903163106 83 156 3.0 8.0 0.00 0.00 0.00 64 1009.1
20260903162559 83 246 2.0 10.0 0.00 0.00 0.00 63 1009.0
20260903162057 83 171 4.0 10.0 0.00 0.00 0.00 63 1008.8
20260903161602 83 204 3.0 10.0 0.00 0.00 0.00 65 1008.9
20260903161059 82 217 3.0 9.0 0.00 0.00 0.00 64 1009.1
20260903160556 82 207 2.0 9.0 0.00 0.00 0.00 65 1009.0
20260903160111 82 198 1.0 9.0 0.00 0.00 0.00 65 1008.8
20260903155558 82 190 3.0 9.0 0.00 0.00 0.00 65 1008.8
20260903155058 82 206 2.0 10.0 0.00 0.00 0.00 65 1008.8
20260903154603 82 149 3.0 10.0 0.00 0.00 0.00 64 1008.9
20260903154055 82 178 3.0 9.0 0.00 0.00 0.00 64 1008.7
20260903153557 81 182 5.0 10.0 0.00 0.00 0.00 65 1008.7
20260903153110 81 202 3.0 11.0 0.00 0.00 0.00 65 1008.5
20260903152558 81 177 4.0 11.0 0.00 0.00 0.00 66 1008.5
20260903152058 80 194 2.0 12.0 0.00 0.00 0.00 67 1008.5
20260903151559 80 219 4.0 13.0 0.00 0.00 0.00 67 1008.4
20260903151100 80 205 5.0 13.0 0.00 0.00 0.00 68 1008.3
20260903150556 80 211 5.0 12.0 0.00 0.00 0.00 68 1008.3
20260903150104 79 202 4.0 12.0 0.00 0.00 0.00 69 1008.4
20260903145557 78 238 4.0 12.0 0.00 0.01 0.00 70 1008.3
20260903145058 78 190 2.0 9.0 0.00 0.01 0.00 72 1008.4
20260903144603 77 130 3.0 13.0 0.00 0.01 0.00 75 1008.6
20260903144058 76 128 2.0 14.0 0.00 0.01 0.00 76 1008.6
20260903143554 75 207 4.0 15.0 0.00 0.01 0.00 77 1008.7
20260903143108 75 156 5.0 15.0 0.00 0.01 0.00 78 1008.9
20260903142556 74 190 3.0 10.0 0.00 0.01 0.00 79 1008.8
20260903142058 74 127 3.0 10.0 0.00 0.01 0.00 80 1008.7
20260903141608 74 211 3.0 8.0 0.00 0.01 0.00 80 1008.8
20260903141056 73 86 2.0 8.0 0.00 0.01 0.00 81 1008.8
20260903140556 73 146 4.0 9.0 0.00 0.01 0.00 82 1008.6
20260903140104 73 181 2.0 9.0 0.00 0.01 0.00 83 1008.6
20260903135557 72 150 2.0 11.0 0.00 0.01 0.00 84 1008.6
20260903135057 72 128 2.0 11.0 0.00 0.01 0.00 84 1008.5
20260903134611 71 219 2.0 11.0 0.00 0.01 0.00 85 1008.6
20260903134057 71 98 3.0 11.0 0.00 0.01 0.00 86 1008.5
20260903133558 71 174 3.0 11.0 0.00 0.01 0.00 86 1008.8
20260903133111 70 126 2.0 8.0 0.00 0.01 0.00 86 1008.8
20260903132558 70 139 2.0 8.0 0.00 0.01 0.00 87 1008.6
20260903132057 70 101 2.0 6.0 0.00 0.01 0.00 87 1008.5
20260903131603 70 133 2.0 7.0 0.00 0.01 0.00 86 1008.4
20260903131058 69 129 2.0 7.0 0.00 0.01 0.00 86 1008.5
20260903130556 69 122 2.0 6.0 0.00 0.01 0.00 86 1008.5
20260903130129 69 107 2.0 6.0 0.00 0.01 0.00 86 1008.4
20260903125557 69 85 2.0 6.0 0.00 0.01 0.00 86 1008.5
20260903125055 69 113 2.0 6.0 0.00 0.01 0.00 86 1008.5
20260903124612 69 113 1.0 6.0 0.00 0.01 0.00 86 1008.5
20260903124057 69 98 2.0 5.0 0.00 0.01 0.00 86 1008.6
20260903123556 69 116 1.0 3.0 0.00 0.01 0.00 86 1008.5
20260903123115 69 119 1.0 4.0 0.00 0.01 0.00 86 1008.6
20260903122555 69 97 1.0 4.0 0.00 0.01 0.00 86 1008.6
20260903122056 69 107 1.0 4.0 0.00 0.01 0.00 85 1008.6
20260903121602 69 114 1.0 3.0 0.00 0.01 0.00 85 1008.6
20260903121057 69 90 1.0 4.0 0.00 0.01 0.00 85 1008.5
20260903120555 69 113 1.0 4.0 0.00 0.01 0.00 85 1008.3
20260903120130 69 84 1.0 4.0 0.00 0.01 0.00 85 1008.6
20260903115558 69 119 1.0 4.0 0.00 0.01 0.00 85 1008.6
20260903115056 69 97 1.0 4.0 0.00 0.01 0.00 85 1008.6
20260903114613 69 100 0.0 3.0 0.00 0.01 0.00 85 1008.5
20260903114057 69 105 1.0 3.0 0.00 0.01 0.00 86 1008.6
20260903113557 69 98 1.0 4.0 0.00 0.01 0.00 86 1008.7
20260903113122 69 85 1.0 4.0 0.00 0.01 0.00 86 1008.6
20260903112558 69 111 1.0 4.0 0.00 0.01 0.00 86 1008.6
20260903112058 69 116 1.0 4.0 0.00 0.01 0.00 86 1008.6
20260903111605 69 106 1.0 7.0 0.00 0.01 0.00 86 1008.6
20260903111055 69 131 1.0 7.0 0.00 0.01 0.00 86 1008.4
20260903110601 69 121 2.0 7.0 0.00 0.01 0.00 86 1008.3
20260903110117 69 112 1.0 4.0 0.00 0.01 0.00 86 1008.3
20260903105600 69 98 2.0 7.0 0.00 0.01 0.00 86 1008.2
20260903105057 69 130 2.0 7.0 0.00 0.01 0.00 86 1008.3
20260903104622 69 136 2.0 6.0 0.00 0.01 0.00 86 1008.3
20260903104058 69 124 2.0 4.0 0.00 0.01 0.00 86 1008.2
20260903103557 69 111 2.0 4.0 0.00 0.01 0.00 86 1008.4
20260903103117 69 115 1.0 4.0 0.00 0.01 0.00 86 1008.5
20260903102556 69 100 1.0 3.0 0.00 0.01 0.00 86 1008.6
20260903102057 69 86 0.0 2.0 0.00 0.01 0.00 86 1008.5
20260903101602 69 86 1.0 3.0 0.00 0.01 0.00 86 1008.6
20260903101057 70 99 1.0 3.0 0.00 0.01 0.00 86 1008.5
20260903100557 70 79 1.0 2.0 0.00 0.01 0.00 86 1008.6
20260903100103 70 93 1.0 2.0 0.00 0.01 0.00 86 1008.6
20260903095557 70 89 0.0 6.0 0.00 0.01 0.00 86 1008.7
20260903095101 70 71 0.0 6.0 0.00 0.01 0.00 86 1008.8
20260903094608 70 121 2.0 4.0 0.00 0.01 0.00 86 1008.8
20260903094058 70 135 1.0 3.0 0.00 0.01 0.00 86 1008.9
20260903093557 70 90 1.0 3.0 0.00 0.01 0.00 86 1008.8
20260903093101 70 123 1.0 6.0 0.00 0.01 0.00 86 1008.8
20260903092557 70 80 1.0 6.0 0.00 0.01 0.00 86 1008.8
20260903092055 70 103 1.0 4.0 0.00 0.01 0.00 87 1008.8
20260903091602 70 104 2.0 4.0 0.00 0.01 0.00 87 1008.8
20260903091057 71 121 1.0 3.0 0.00 0.01 0.00 87 1008.9
20260903090557 71 109 1.0 3.0 0.00 0.01 0.00 87 1008.9
20260903090107 71 128 1.0 3.0 0.00 0.01 0.00 87 1008.9
20260903085556 71 104 1.0 3.0 0.00 0.01 0.00 87 1008.9
20260903085056 71 94 1.0 4.0 0.00 0.01 0.00 87 1009.0
20260903084603 71 139 1.0 4.0 0.00 0.01 0.00 87 1009.0
20260903084058 71 98 1.0 4.0 0.00 0.01 0.00 87 1009.0
20260903083558 71 102 1.0 3.0 0.00 0.01 0.00 87 1009.1
20260903083105 71 80 1.0 3.0 0.00 0.01 0.00 87 1009.1
20260903082557 71 98 1.0 3.0 0.00 0.01 0.00 87 1009.1
20260903082057 71 99 1.0 4.0 0.00 0.01 0.00 87 1009.1
20260903081624 71 106 1.0 4.0 0.00 0.01 0.00 87 1009.1
20260903081054 71 93 1.0 4.0 0.00 0.01 0.00 87 1009.2
20260903080558 71 92 1.0 4.0 0.00 0.01 0.00 87 1009.2
20260903080103 71 98 1.0 4.0 0.00 0.01 0.00 87 1009.2
20260903075555 71 61 2.0 4.0 0.00 0.01 0.00 87 1009.3
20260903075055 71 105 1.0 3.0 0.00 0.01 0.00 87 1009.4
20260903074611 72 78 1.0 2.0 0.00 0.01 0.00 87 1009.4
20260903074054 72 79 0.0 3.0 0.00 0.01 0.00 87 1009.4
20260903073558 72 60 1.0 4.0 0.00 0.01 0.00 87 1009.6
20260903073136 72 85 1.0 4.0 0.00 0.01 0.00 87 1009.6
20260903072557 72 108 1.0 4.0 0.00 0.01 0.00 87 1009.6
20260903072057 72 109 1.0 4.0 0.00 0.01 0.00 87 1009.7
20260903071621 72 82 1.0 4.0 0.00 0.01 0.00 87 1009.7
20260903071058 72 0 0.0 3.0 0.00 0.01 0.00 87 1009.8
20260903070557 72 98 1.0 3.0 0.00 0.01 0.00 87 1009.9
20260903070103 72 85 1.0 3.0 0.00 0.01 0.00 87 1009.9
20260903065557 72 0 0.0 3.0 0.00 0.01 0.00 87 1009.9
20260903065056 72 0 0.0 3.0 0.00 0.01 0.00 87 1010.0
20260903064600 72 0 0.0 3.0 0.00 0.01 0.00 87 1010.0
20260903064057 72 86 0.0 3.0 0.00 0.01 0.00 88 1010.1
20260903063558 72 90 0.0 1.0 0.00 0.01 0.00 88 1010.1
20260903063102 72 0 0.0 1.0 0.00 0.01 0.00 87 1010.1
20260903062557 72 0 0.0 1.0 0.00 0.01 0.00 87 1010.1
20260903062057 72 0 0.0 1.0 0.00 0.01 0.00 87 1010.1
20260903061601 72 0 0.0 0.0 0.00 0.01 0.00 87 1010.1
20260903061057 72 0 0.0 1.0 0.00 0.01 0.00 87 1010.1
20260903060557 72 0 0.0 2.0 0.00 0.01 0.00 86 1010.1
20260903060149 72 0 0.0 2.0 0.00 0.01 0.00 86 1010.1
20260903055554 72 0 0.0 2.0 0.00 0.01 0.00 86 1010.2
20260903055056 72 0 0.0 2.0 0.00 0.01 0.00 86 1010.2
20260903054602 72 0 0.0 2.0 0.00 0.01 0.00 86 1010.3
20260903054058 72 0 0.0 1.0 0.00 0.01 0.00 86 1010.3
20260903053600 72 0 0.0 1.0 0.00 0.01 0.00 86 1010.3
20260903053100 72 0 0.0 1.0 0.00 0.01 0.00 86 1010.3
20260903052557 72 0 0.0 1.0 0.00 0.01 0.00 86 1010.3
20260903052059 72 0 0.0 1.0 0.00 0.01 0.00 85 1010.3
20260903051608 72 0 0.0 1.0 0.00 0.01 0.00 85 1010.2
20260903051057 72 0 0.0 1.0 0.00 0.01 0.00 85 1010.4
20260903050601 72 0 0.0 2.0 0.00 0.01 0.00 85 1010.4
20260903050104 72 0 0.0 2.0 0.00 0.01 0.00 85 1010.4
20260903045557 72 0 0.0 2.0 0.00 0.01 0.01 85 1010.5
20260903045057 72 0 0.0 2.0 0.00 0.01 0.01 84 1010.4
20260903044603 72 0 0.0 3.0 0.00 0.01 0.01 84 1010.6
20260903044100 72 105 0.0 4.0 0.00 0.01 0.01 83 1010.6
20260903043554 72 113 1.0 4.0 0.00 0.01 0.01 83 1010.7
20260903043102 72 112 0.0 3.0 0.00 0.01 0.01 83 1010.7
20260903042554 72 0 0.0 3.0 0.00 0.01 0.01 83 1010.6
20260903042056 72 113 1.0 3.0 0.00 0.01 0.01 82 1010.6
20260903041600 72 99 1.0 3.0 0.00 0.01 0.01 82 1010.7
20260903041055 73 0 0.0 3.0 0.00 0.01 0.01 82 1010.7
20260903040600 73 0 0.0 3.0 0.00 0.01 0.01 82 1010.7
20260903040108 73 0 0.0 1.0 0.00 0.01 0.01 82 1010.8
20260903035557 73 0 0.0 1.0 0.00 0.01 0.01 82 1010.7
20260903035057 73 0 0.0 2.0 0.00 0.01 0.01 82 1010.7
20260903034603 73 0 0.0 2.0 0.00 0.01 0.01 82 1010.8
20260903034055 73 99 0.0 3.0 0.00 0.01 0.01 81 1010.9
20260903033558 74 0 0.0 3.0 0.00 0.01 0.01 81 1010.8
20260903033100 74 112 1.0 2.0 0.00 0.01 0.01 80 1010.8
20260903032559 74 74 0.0 2.0 0.00 0.01 0.01 80 1010.8